Regional Weather Roundup
Issued by NWS

Home | Current Version | Previous Version | Graphics & Text | Print | Product List | Glossary On
Versions: 1 2 3 4 5 6 7 8 9 10 11 12 13 14 15 16 17 18 19 20 21 22 23 24 25 26 27 28 29 30 31 32 33 34 35 36 37 38 39 40 41 42 43 44 45 46 47 48 49 50
000
ASUS43 KLOT 220606
RWRIL

ILLINOIS REGIONAL WEATHER ROUNDUP
NATIONAL WEATHER SERVICE CHICAGO/ROMEOVILLE IL
100 AM CDT WED OCT 22 2014

NOTE: "FAIR" INDICATES FEW OR NO CLOUDS BELOW 12,000 FEET WITH NO
SIGNIFICANT WEATHER AND/OR OBSTRUCTIONS TO VISIBILITY.

* THESE STATIONS ARE NOT UNDER NWS QUALITY CONTROL. THEY ALSO MAY NOT
  REPORT WEATHER SUCH AS PRECIPITATION OR FOG.

ILZ001-002-007-009-015-016-024-220700-
NORTHWEST ILLINOIS

CITY           SKY/WX    TMP DP  RH WIND       PRES   REMARKS
MOLINE         CLEAR     37  33  85 E7        30.26S WCI  32
6HR MIN TEMP:  37; 6HR MAX TEMP:  47;

STERLING*      CLEAR     36  32  87 E6        30.28R WCI  31
SAVANNA*       CLEAR     36  34  92 E3        30.28S
$$

ILZ003-004-008-010-011-017-018-220700-
NORTH CENTRAL ILLINOIS

CITY           SKY/WX    TMP DP  RH WIND       PRES   REMARKS
ROCKFORD       CLEAR     37  33  85 NE3       30.29S
6HR MIN TEMP:  36; 6HR MAX TEMP:  49;

FREEPORT*      PTCLDY    32  29  90 CALM      30.30S FOG
ROCHELLE*      CLEAR     33  32  97 CALM      30.28S
DE KALB*       PTCLDY    35  33  92 N6        30.27S WCI  30
PERU*          CLEAR     39  35  87 NE5       30.28R
$$

ILZ005-006-012>014-019>023-220700-
NORTHEAST ILLINOIS

CITY           SKY/WX    TMP DP  RH WIND       PRES   REMARKS
CHICAGO-OHARE  MOCLDY    46  37  71 NE5       30.25S
6HR MIN TEMP:  46; 6HR MAX TEMP:  49;

CHICAGO-MIDWAY CLOUDY    51  41  68 NE5       30.25S
6HR MIN TEMP:  49; 6HR MAX TEMP:  51;

AURORA         PTCLDY    34  30  85 CALM      30.27S
6HR MIN TEMP:  33; 6HR MAX TEMP:  49;

LANSING*       CLEAR     42  37  83 CALM      30.25S
JOLIET*        CLEAR     42  37  85 CALM      30.26S
WAUKEGAN       PTCLDY    39  37  92 NW6       30.26S WCI  35
6HR MIN TEMP:  38; 6HR MAX TEMP:  46;

DUPAGE AIRPORT CLOUDY    42  37  82 N3        30.26R
6HR MIN TEMP:  38; 6HR MAX TEMP:  48;

KANKAKEE*      CLEAR     41  39  95 CALM      30.26S
WHEELING       CLOUDY    50  38  63 CALM      30.27R
6HR MIN TEMP:  46; 6HR MAX TEMP:  50;

MORRIS*        CLEAR     40  38  90 CALM      30.25S
ROMEOVILLE*    CLOUDY    41  37  85 NW5       30.26S
NORTHERLY ISL    N/A     51  40  65 NE9         N/A
$$

LMZ740>746-220700-
SOUTHERN LAKE MICHIGAN

STATION/POSITION SKY/WX   TEMP    WIND        PRES    VSBY  WAVE
                          AIR SEA DIR/SP/G                  HT/PER
                          (F)     (DEG/KT/KT) (MB)    (MI)  (FT/S)
SOUTHERN BUOY              50 54   70/ 12/ 14 1024.8R         4/ 6
WAUKEGAN HARBOR            50      50/  9/ 11   N/A
HARRISON CRIB              51      50/  9/ 12   N/A
BURNHAM HARBOR             51      40/  7/ 12   N/A
CALUMET HARBOR             50     120/  5/  8 1023.0R
MICHIGAN CITY              43     140/  1/  2   N/A
$$

ILZ025>027-034>036-040-047-049-050-058-095>099-220700-
WEST-CENTRAL ILLINOIS

CITY           SKY/WX    TMP DP  RH WIND       PRES   REMARKS
QUINCY         CLEAR     47  40  76 E10       30.22R
GALESBURG*     CLEAR     41  38  87 E3        30.25R
MACOMB*        CLEAR     37  37  97 NE5       30.27S WCI  34
JACKSONVILLE*  CLEAR     42  40  90 E6        30.24R
PITTSFIELD*    CLEAR     45  40  83 E3        30.24R
$$

ILZ028>032-037-038-041>044-048-051>054-059>061-220700-
CENTRAL ILLINOIS

CITY           SKY/WX    TMP DP  RH WIND       PRES   REMARKS
PONTIAC        CLEAR     38  35  89 N3        30.26S
BLOOMINGTON    CLEAR     38  36  92 E5        30.26R WCI  34
DECATUR        CLEAR     40  37  89 NE6       30.24S
PEORIA         CLEAR     43  37  79 E7        30.26R
6HR MIN TEMP:  43; 6HR MAX TEMP:  52;

LACON*         CLEAR     35  34  94 CALM      30.26R
LINCOLN*       CLEAR     40  38  93 E3        30.25R
SPRINGFIELD    CLEAR     41  37  86 E6        30.25R
6HR MIN TEMP:  41; 6HR MAX TEMP:  50;

TAYLORVILLE    CLEAR     41  37  87 E6        30.24R
$$

ILZ033-039-045-046-055>057-062-063-220700-
EAST-CENTRAL ILLINOIS

CITY           SKY/WX    TMP DP  RH WIND       PRES   REMARKS
CHAMPAIGN      CLEAR     44  38  79 NE7       30.24R
DANVILLE*      PTCLDY    40  36  87 NE7       30.22S
RANTOUL*       CLOUDY    49  39  66 NE9       30.24S
MATTOON        CLEAR     40  37  89 CALM      30.23R
PARIS*         CLEAR     42  39  90 CALM      30.24S
$$

ILZ079-100>102-220700-
SOUTHWEST ILLINOIS

CITY           SKY/WX    TMP DP  RH WIND       PRES   REMARKS
ALTON          CLEAR     45  40  81 E5        30.23S
BELLEVILLE     CLEAR     46  42  86 NE2       30.21S
CAHOKIA*       CLEAR     48  41  76 E5        30.22R
SPARTA*        CLEAR     46  41  84 E6        30.21S
$$

ILZ064>066-069>071-074>076-080>082-084>086-088>090-092>094-220700-
SOUTH-CENTRAL ILLINOIS

CITY           SKY/WX    TMP DP  RH WIND       PRES   REMARKS
CARBONDALE     CLEAR     44  40  85 NE3       30.20R
6HR MIN TEMP:  41; 6HR MAX TEMP:  58;

CAIRO*         CLEAR     50  43  76 N5        30.18S
EFFINGHAM*     CLEAR     45  38  79 NE3       30.23S
MARION         CLEAR     43  41  93 N5        30.20S
MT. VERNON     CLEAR     45  37  76 NE6       30.22R
CENTRALIA*     CLEAR     45  40  83 NE3       30.22S
SALEM*         CLEAR     47  44  87 NE5       30.22S
METROPOLIS*    CLEAR     47  43  85 CALM      30.18R
$$

ILZ067-068-072-073-078-083-087-091-220700-
SOUTHEAST ILLINOIS

CITY           SKY/WX    TMP DP  RH WIND       PRES   REMARKS
LAWRENCEVILLE  CLEAR     46  42  86 NE9       30.21S
FLORA*         CLEAR     46  41  84 NE7       30.23R
FAIRFIELD*     CLEAR     44  42  90 N5        30.20S
HARRISBURG*    CLEAR     47  41  81 NE8       30.21S
ROBINSON*      CLEAR     45  42  90 N6        30.23S
CARMI*         CLEAR     45  42  89 N3        30.20S
$$

ABBREVIATIONS USED IN REMARKS
   TC - TEMPERATURE IN CELSIUS
  WCI - WIND CHILL INDEX
   HX - HEAT INDEX
  VSB - VISIBILITY
$$




USA.gov is the U.S. government's official web portal to all federal, state and local government web resources and services.